FW6665 Weather Reports


time (UTC)temp
F
wind
direction
speed
knots
gust
knots
rain 1hr
in
rain 24hr
in
rain mn
in
humidity
%
barometer
mb
20260507052705 48 276 0.0 0.0 0.00 0.00 0.00 83 1013.2
20260507052208 48 276 0.0 0.0 0.00 0.00 0.00 83 1013.1
20260507051707 48 276 0.0 0.0 0.00 0.00 0.00 83 1013.1
20260507045705 48 276 0.0 0.0 0.00 0.00 0.00 84 1013.2
20260507045205 47 276 0.0 0.0 0.00 0.00 0.00 84 1013.1
20260507044705 48 276 0.0 0.0 0.00 0.00 0.00 84 1013.0
20260507044203 48 276 0.0 0.0 0.00 0.00 0.00 84 1013.0
20260507043704 48 276 0.0 0.0 0.00 0.00 0.00 84 1013.0
20260507043205 48 276 0.0 0.0 0.00 0.00 0.00 84 1013.0
20260507042708 48 276 0.0 0.0 0.00 0.00 0.00 84 1013.0
20260507042204 48 276 0.0 0.0 0.00 0.00 0.00 84 1012.9
20260507041705 48 276 0.0 0.0 0.00 0.00 0.00 84 1012.9
20260507041204 48 276 0.0 0.0 0.00 0.00 0.00 84 1012.9
20260507040704 48 276 0.0 0.0 0.00 0.00 0.00 84 1012.8
20260507040205 48 276 0.0 0.0 0.00 0.00 0.00 84 1012.9
20260507035704 48 276 0.0 0.0 0.00 0.00 0.00 84 1012.9
20260507034705 48 276 0.0 0.0 0.00 0.00 0.00 84 1012.9
20260507034204 48 276 0.0 0.0 0.00 0.00 0.00 84 1012.9
20260507033704 48 276 0.0 0.0 0.00 0.00 0.00 84 1012.9
20260507033210 49 276 0.0 0.0 0.00 0.00 0.00 84 1012.8
20260507032704 49 276 0.0 0.0 0.00 0.00 0.00 84 1012.8
20260507032206 49 276 0.0 0.0 0.00 0.00 0.00 84 1012.7
20260507031705 49 276 0.0 0.0 0.00 0.00 0.00 84 1012.8
20260507031204 49 276 0.0 0.0 0.00 0.00 0.00 84 1012.7
20260507030704 49 276 0.0 0.0 0.00 0.00 0.00 84 1012.8
20260507030204 49 276 0.0 0.0 0.00 0.00 0.00 84 1012.8
20260507025709 49 276 0.0 0.0 0.00 0.00 0.00 84 1012.8
20260507025204 49 276 0.0 0.0 0.00 0.00 0.00 84 1012.8
20260507024704 49 276 0.0 0.0 0.00 0.00 0.00 84 1012.8
20260507024204 49 276 0.0 0.0 0.00 0.00 0.00 84 1012.8
20260507023704 48 276 0.0 0.0 0.00 0.00 0.00 84 1012.7
20260507022704 48 276 0.0 0.0 0.00 0.00 0.00 84 1012.6
20260507022204 48 276 0.0 0.0 0.00 0.00 0.00 84 1012.7
20260507021705 48 276 0.0 0.0 0.00 0.00 0.00 84 1012.5
20260507021204 48 276 0.0 0.0 0.00 0.00 0.00 84 1012.6
20260507020704 48 276 0.0 0.0 0.00 0.00 0.00 84 1012.5
20260507015704 49 276 0.0 0.0 0.00 0.00 0.00 84 1012.5
20260507015204 49 276 0.0 0.0 0.00 0.00 0.00 84 1012.5
20260507014704 49 276 0.0 0.0 0.00 0.00 0.00 84 1012.4
20260507014207 49 276 0.0 0.0 0.00 0.00 0.00 84 1012.5
20260507013704 49 276 0.0 0.0 0.00 0.00 0.00 84 1012.5
20260507013204 49 276 0.0 0.0 0.00 0.00 0.00 84 1012.5
20260507011704 49 276 0.0 0.0 0.00 0.00 0.00 84 1012.5
20260507010705 49 276 0.0 0.0 0.00 0.00 0.00 84 1012.5
20260507010204 49 276 0.0 0.0 0.00 0.00 0.00 84 1012.5
20260507005704 49 276 0.0 0.0 0.00 0.00 0.00 84 1012.4
20260507005206 49 276 0.0 0.0 0.00 0.00 0.00 84 1012.4
20260507004705 49 276 0.0 0.0 0.00 0.00 0.00 83 1012.6
20260507004210 49 276 0.0 0.0 0.00 0.00 0.00 83 1012.5
20260507003204 49 276 0.0 0.0 0.00 0.00 0.00 83 1012.5
20260507002704 49 276 0.0 0.0 0.00 0.00 0.00 83 1012.5
20260507002204 49 276 0.0 0.0 0.00 0.00 0.00 83 1012.5
20260507001705 49 276 0.0 0.0 0.00 0.00 0.00 83 1012.6
20260507001205 49 276 0.0 0.0 0.00 0.00 0.00 83 1012.4
20260507000704 49 276 0.0 0.0 0.00 0.00 0.00 83 1012.6
20260507000205 49 276 0.0 0.0 0.00 0.00 0.00 83 1012.5
20260506235705 49 276 0.0 0.0 0.00 0.00 0.00 83 1012.5
20260506235205 49 276 0.0 0.0 0.00 0.00 0.00 83 1012.5
20260506234705 49 276 0.0 0.0 0.00 0.00 0.00 83 1012.5
20260506234204 49 276 0.0 0.0 0.00 0.00 0.00 83 1012.5
20260506233704 49 276 0.0 0.0 0.00 0.00 0.00 83 1012.4
20260506233204 49 276 0.0 0.0 0.00 0.00 0.00 82 1012.4
20260506232709 49 276 0.0 0.9 0.00 0.00 0.00 83 1012.5
20260506232207 50 276 0.0 0.9 0.00 0.00 0.00 82 1012.5
20260506231706 50 276 0.0 1.7 0.00 0.00 0.00 82 1012.3
20260506231205 50 276 0.0 1.7 0.00 0.00 0.00 82 1012.4
20260506230705 50 276 0.0 1.7 0.00 0.00 0.00 82 1012.3
20260506230205 50 276 0.0 0.9 0.00 0.00 0.00 82 1012.5
20260506225704 50 276 0.0 1.7 0.00 0.00 0.00 82 1012.3
20260506225204 50 276 0.0 2.6 0.00 0.00 0.00 82 1012.4
20260506224705 50 276 0.0 2.6 0.00 0.00 0.00 82 1012.4
20260506224204 50 276 0.0 2.6 0.00 0.00 0.00 81 1012.3
20260506223704 50 275 0.0 1.7 0.00 0.00 0.00 81 1012.3
20260506222204 50 275 0.0 0.9 0.00 0.00 0.00 80 1012.4
20260506221204 51 275 0.0 1.7 0.00 0.00 0.00 79 1012.3
20260506220705 51 275 0.0 1.7 0.00 0.00 0.00 79 1012.3
20260506220208 51 275 0.0 1.7 0.00 0.00 0.00 79 1012.3
20260506215205 51 275 0.0 2.6 0.00 0.00 0.00 78 1012.1
20260506214706 51 275 0.0 2.6 0.00 0.00 0.00 78 1012.2
20260506213705 51 275 0.9 2.6 0.00 0.00 0.00 76 1012.2
20260506213204 51 275 0.0 2.6 0.00 0.00 0.00 76 1012.1
20260506212204 51 275 0.0 1.7 0.00 0.00 0.00 75 1012.1
20260506211704 51 275 0.0 1.7 0.00 0.00 0.00 75 1012.1
20260506211205 51 275 0.0 2.6 0.00 0.00 0.00 74 1012.0
20260506210205 51 275 0.0 2.6 0.00 0.00 0.00 73 1012.0
20260506205706 52 275 0.0 2.6 0.00 0.00 0.00 73 1012.0
20260506204704 52 275 0.0 2.6 0.00 0.00 0.00 72 1011.9
20260506204204 52 275 0.0 2.6 0.00 0.00 0.00 72 1011.9
20260506203705 52 275 0.0 2.6 0.00 0.00 0.00 72 1011.9
20260506202704 52 275 0.0 3.5 0.00 0.00 0.00 71 1011.9
20260506202205 52 272 0.0 3.5 0.00 0.00 0.00 70 1011.8
20260506201704 52 272 0.0 3.5 0.00 0.00 0.00 70 1011.8
20260506201203 53 271 0.9 3.5 0.00 0.00 0.00 70 1011.6
20260506200705 53 252 0.9 2.6 0.00 0.00 0.00 69 1011.7
20260506200204 53 341 0.9 2.6 0.00 0.00 0.00 69 1011.4
20260506195705 53 341 0.9 2.6 0.00 0.00 0.00 69 1011.5
20260506195205 53 353 0.9 2.6 0.00 0.00 0.00 69 1011.5
20260506194703 53 354 0.9 0.9 0.00 0.00 0.00 69 1011.4
20260506193204 53 7 0.0 2.6 0.00 0.00 0.00 68 1011.2
20260506192705 53 319 0.0 4.3 0.00 0.00 0.00 68 1011.1
20260506192204 53 276 0.0 4.3 0.00 0.00 0.00 67 1011.3
20260506191704 53 276 0.0 2.6 0.00 0.00 0.00 67 1011.2
20260506191209 53 262 0.0 2.6 0.00 0.00 0.00 67 1011.1
20260506190708 53 262 0.0 2.6 0.00 0.00 0.00 67 1011.1
20260506185204 53 262 0.0 1.7 0.00 0.00 0.00 67 1011.0
20260506184709 53 262 0.0 1.7 0.00 0.00 0.00 67 1011.0
20260506184207 53 262 0.0 1.7 0.00 0.00 0.00 67 1010.8
20260506183704 53 262 0.0 1.7 0.00 0.00 0.00 67 1010.8
20260506182706 53 262 0.0 1.7 0.00 0.00 0.00 67 1010.7
20260506182205 53 262 0.0 2.6 0.00 0.00 0.00 67 1010.7
20260506180204 53 248 0.0 1.7 0.00 0.00 0.00 67 1010.7
20260506175705 53 248 0.0 1.7 0.00 0.00 0.00 67 1010.6
20260506175204 53 248 0.0 0.9 0.00 0.00 0.00 68 1010.6
20260506174705 53 248 0.0 1.7 0.00 0.00 0.00 67 1010.5
20260506174204 53 248 0.0 1.7 0.00 0.00 0.00 68 1010.5
20260506173704 53 248 0.0 1.7 0.00 0.00 0.00 67 1010.4
20260506173209 53 248 0.0 1.7 0.00 0.00 0.00 67 1010.4
20260506172703 53 248 0.0 2.6 0.00 0.00 0.00 67 1010.4
20260506172205 54 248 0.0 2.6 0.00 0.00 0.00 67 1010.4
20260506171704 54 248 0.0 2.6 0.00 0.00 0.00 67 1010.4
20260506171208 54 247 0.0 1.7 0.00 0.00 0.00 67 1010.3
20260506170704 54 247 0.0 1.7 0.00 0.00 0.00 67 1010.3
20260506165705 54 245 0.0 0.9 0.00 0.00 0.00 67 1010.3
20260506165204 54 245 0.0 0.9 0.00 0.00 0.00 67 1010.3
20260506164705 54 245 0.0 1.7 0.00 0.00 0.00 66 1010.3
20260506164204 54 245 0.0 1.7 0.00 0.00 0.00 65 1010.2
20260506163706 54 245 0.0 1.7 0.00 0.00 0.00 64 1010.3
20260506163208 54 245 0.0 4.3 0.00 0.00 0.00 64 1010.3
20260506161704 54 245 0.0 1.7 0.00 0.00 0.00 63 1010.3
20260506161205 54 295 0.0 2.6 0.00 0.00 0.00 64 1010.3
20260506160704 55 296 0.9 3.5 0.00 0.00 0.00 63 1010.3
20260506160204 55 295 0.9 3.5 0.00 0.00 0.00 63 1010.4
20260506155704 55 295 0.9 3.5 0.00 0.00 0.00 63 1010.3
20260506155204 55 303 0.9 3.5 0.00 0.00 0.00 62 1010.4
20260506154704 55 275 0.0 4.3 0.00 0.00 0.00 63 1010.3
20260506154204 56 275 0.9 4.3 0.00 0.00 0.00 62 1010.4
20260506153705 56 262 0.0 4.3 0.00 0.00 0.00 63 1010.3
20260506153204 56 259 0.9 5.2 0.00 0.00 0.00 63 1010.3
20260506152204 56 245 0.9 5.2 0.00 0.00 0.00 63 1010.3
20260506151704 56 250 0.9 5.2 0.00 0.00 0.00 65 1010.3
20260506150704 56 240 1.7 4.3 0.00 0.00 0.00 65 1010.3
20260506150204 55 276 0.9 5.2 0.00 0.00 0.00 66 1010.3
20260506145705 55 275 0.9 5.2 0.00 0.00 0.00 65 1010.3
20260506145204 55 266 0.9 5.2 0.00 0.00 0.00 66 1010.4
20260506144205 55 259 0.9 4.3 0.00 0.00 0.00 67 1010.3
20260506143705 55 257 1.7 5.2 0.00 0.00 0.00 66 1010.3
20260506143204 55 258 0.9 5.2 0.00 0.00 0.00 67 1010.4
20260506142205 56 282 0.9 4.3 0.00 0.00 0.00 66 1010.4
20260506141704 56 278 0.9 4.3 0.00 0.00 0.00 66 1010.3
20260506141204 57 252 2.6 4.3 0.00 0.00 0.00 64 1010.3
20260506140704 57 266 0.9 4.3 0.00 0.00 0.00 65 1010.3
20260506140205 57 265 1.7 4.3 0.00 0.00 0.00 67 1010.4
20260506135704 56 258 0.9 4.3 0.00 0.00 0.00 69 1010.4
20260506135205 55 271 0.9 4.3 0.00 0.00 0.00 68 1010.4
20260506134704 55 268 0.9 3.5 0.00 0.00 0.00 67 1010.5
20260506134205 55 300 1.7 3.5 0.00 0.00 0.00 66 1010.4
20260506133204 55 307 0.9 4.3 0.00 0.00 0.00 66 1010.3
20260506132705 55 316 0.0 4.3 0.00 0.00 0.00 67 1010.4
20260506132204 55 319 0.9 3.5 0.00 0.00 0.00 67 1010.5
20260506131704 55 313 0.9 3.5 0.00 0.00 0.00 67 1010.5
20260506130706 55 288 0.9 2.6 0.00 0.00 0.00 66 1010.5
20260506130204 55 285 0.0 2.6 0.00 0.00 0.00 66 1010.4
20260506125703 55 285 0.0 4.3 0.00 0.00 0.00 65 1010.5
20260506125204 55 286 0.9 5.2 0.00 0.00 0.00 64 1010.5
20260506124704 55 250 0.9 5.2 0.00 0.00 0.00 64 1010.5
20260506124205 56 268 0.9 5.2 0.00 0.00 0.00 63 1010.4
20260506123705 56 303 0.0 5.2 0.00 0.00 0.00 63 1010.3
20260506123205 56 283 0.9 5.2 0.00 0.00 0.00 63 1010.3
20260506122704 56 288 0.9 6.1 0.00 0.00 0.00 63 1010.3
20260506122205 56 254 0.9 6.1 0.00 0.00 0.00 64 1010.2
20260506120704 56 282 0.9 5.2 0.00 0.00 0.00 64 1010.4
20260506120206 55 345 0.9 5.2 0.00 0.00 0.00 65 1010.3
20260506115704 55 0 0.9 5.2 0.00 0.00 0.00 64 1010.4
20260506115204 55 271 1.7 4.3 0.00 0.00 0.00 64 1010.4
20260506114705 55 272 1.7 7.8 0.00 0.00 0.00 64 1010.4
20260506114206 55 281 0.0 7.8 0.00 0.00 0.00 63 1010.4
20260506113703 55 245 0.9 7.8 0.00 0.00 0.00 62 1010.4
20260506113204 56 317 2.6 6.1 0.00 0.00 0.00 61 1010.4
20260506112704 56 320 1.7 6.1 0.00 0.00 0.00 63 1010.4
20260506112205 56 262 1.7 6.1 0.00 0.00 0.00 61 1010.4
20260506111705 55 272 1.7 6.1 0.00 0.00 0.00 61 1010.4
20260506110704 56 285 1.7 4.3 0.00 0.00 0.00 61 1010.4
20260506110204 56 299 0.9 6.1 0.00 0.00 0.00 61 1010.4
20260506105703 56 305 0.9 6.1 0.00 0.00 0.00 59 1010.5
20260506105205 56 274 1.7 4.3 0.00 0.00 0.00 59 1010.4
20260506104704 57 302 0.9 4.3 0.00 0.00 0.00 59 1010.4
20260506104204 56 319 1.7 8.7 0.00 0.00 0.00 60 1010.5
20260506103704 55 264 0.9 8.7 0.00 0.00 0.00 63 1010.4
20260506103204 55 266 0.9 8.7 0.00 0.00 0.00 63 1010.4
20260506102705 55 262 1.7 6.1 0.00 0.00 0.00 65 1010.4
20260506101204 53 286 0.9 9.6 0.00 0.00 0.00 65 1010.4
20260506100703 53 300 0.9 9.6 0.00 0.00 0.00 65 1010.5
20260506100204 53 278 1.7 6.1 0.00 0.00 0.00 65 1010.6
20260506095707 53 250 2.6 6.1 0.00 0.00 0.00 64 1010.5
20260506095204 53 262 0.0 6.1 0.00 0.00 0.00 65 1010.5
20260506094704 53 243 1.7 5.2 0.00 0.00 0.00 65 1010.6
20260506094204 53 286 1.7 6.1 0.00 0.00 0.00 64 1010.6
20260506092705 55 0 2.6 10.4 0.00 0.00 0.00 61 1010.5
20260506092204 55 266 1.7 7.8 0.00 0.00 0.00 62 1010.4
20260506091704 55 0 1.7 8.7 0.00 0.00 0.00 64 1010.5
20260506091204 54 299 1.7 8.7 0.00 0.00 0.00 64 1010.5
20260506090704 54 244 2.6 8.7 0.00 0.00 0.00 64 1010.4
20260506090205 54 261 2.6 5.2 0.00 0.00 0.00 65 1010.4
20260506085705 54 306 0.9 8.7 0.00 0.00 0.00 67 1010.3
20260506084704 53 313 0.9 8.7 0.00 0.00 0.00 68 1010.2
20260506084204 53 285 1.7 6.1 0.00 0.00 0.00 68 1010.3
20260506083704 52 0 1.7 6.1 0.00 0.00 0.00 69 1010.3
20260506082206 53 326 0.9 7.8 0.00 0.00 0.00 71 1010.3
20260506081704 53 306 0.9 7.8 0.00 0.00 0.00 72 1010.2
20260506081204 52 39 1.7 7.8 0.00 0.00 0.00 73 1010.2
20260506080204 51 285 1.7 7.8 0.00 0.00 0.00 73 1010.3
20260506072704 50 279 0.9 5.2 0.00 0.00 0.00 79 1010.3
20260506072204 49 264 0.0 5.2 0.00 0.00 0.00 79 1010.3
20260506071705 49 262 0.9 5.2 0.00 0.00 0.00 79 1010.3
20260506071205 49 264 0.9 4.3 0.00 0.00 0.00 80 1010.3
20260506070204 48 250 0.9 5.2 0.00 0.00 0.00 80 1010.1
20260506062205 47 289 1.7 7.8 0.00 0.00 0.00 80 1010.2
20260506061704 47 216 0.9 4.3 0.00 0.00 0.00 81 1010.2
20260506061205 47 243 0.9 5.2 0.00 0.00 0.00 81 1010.2
20260506060705 47 243 0.0 6.1 0.00 0.00 0.00 80 1010.2
20260506060204 47 240 0.9 6.1 0.00 0.00 0.00 80 1010.2